Location: Leuk
(46.3174°N, 7.6341°E)
Time: 15:23:45
(UTC+00:00)

Lacrosse 5 - Pass Details

Date: 09 March 2021
Orbit: 718 x 721 km, 57.0° (Epoch: 02 April)

Event Time Altitude Azimuth Distance (km) Brightness Sun altitude
Exits shadow 04:19:23 30° 271° (W) 1,286 2.6 -17.0°
Maximum altitude 04:21:05 38° 230° (SW) 1,080 2.3 -16.8°
Drops below altitude 10° 04:25:45 10° 163° (SSE) 2,194 4.4 -16.0°
Sets 04:28:14 0° 156° (SSE) 3,110 5.3 -15.5°
